Location: Caltech
(34.1382°N, 118.1253°W)
Time: 08:17:02
(UTC-08:00)

Gbstr 26 Del rocket - Visible Passes

Search period start: 24 February 2018 00:00
Search period end: 06 March 2018 00:00
Orbit: 493 x 1265 km, 51.8° (Epoch: 24 February)

Date Brightness Start Highest point End Pass type
(mag) Time Alt. Az. Time Alt. Az. Time Alt. Az.
24 Feb 2.8 18:22:18 10° SW 18:26:02 73° NW 18:29:50 10° NE visible
24 Feb 5.6 20:11:54 10° NW 20:12:58 12° NNW 20:12:58 12° NNW visible
25 Feb 3.3 18:17:57 10° WSW 18:21:38 51° NW 18:25:20 10° NE visible
25 Feb 5.7 20:08:41 10° NNW 20:09:07 10° NNW 20:09:07 10° NNW visible
26 Feb 3.9 18:13:43 10° WSW 18:17:14 37° NW 18:20:47 10° NNE visible
27 Feb 4.4 18:09:34 10° W 18:12:52 28° NW 18:16:11 10° NNE visible
